Location: Fontevrault
(47.1823°N, 0.0493°E)
Time: 04:47:50
(UTC+00:00)

Cosmos 1459 Rocket - Pass Details

Date: 20 October 2021
Orbit: 936 x 1000 km, 83.0° (Epoch: 01 December)

Event Time Altitude Azimuth Distance (km) Brightness Sun altitude
Exits shadow 20:24:14 33° 359° (N) 1,558 5.2 -34.4°
Drops below altitude 10° 20:27:29 10° 6° (N) 2,693 6.5 -34.9°
Sets 20:29:59 0° 8° (N) 3,635 7.2 -35.2°
